Find Kosmos-2474

NORAD ID: 37829 Int'l Des: 2011-055 Owner: KVR/IACG Country: RU Constellation: GLONASS operational
MEOCIRCULAR

リアルタイム位置

3D地球を読み込み中...

Kosmos-2474について

説明を読み込み中...

次回通過

Passes for default location (London). Set your location on the main map for personalized predictions.

高度履歴

Loading altitude history...

軌道要素

1 37829U 11055A 26104.31128675 .00000041 00000-0 00000+0 0 9991
2 37829 65.2547 75.0374 0010840 249.6791 182.8494 2.13101247113098
Epoch: Apr 14, 2026 • Age: 21 hours

現在のステータス

高度 19154.8 km
速度 3.95 km/s
衛星直下点 31.28°N, 175.67°E
打ち上げ日 Oct 2, 2011
運用期間 14.5 years
タイプ other

技術仕様

分類 Payload
質量 1450.00 kg
乾燥質量 1200.00 kg
総質量 1450.00 kg
長さ 4.00 m
直径 1.50 m
スパン 7.80 m
形状 Cyl + Ant + 2 Pan
製造者 RESH
バスタイプ Uragan
フェーズステータス In Orbit
所有者/国 KVR/IACG/RU

Most Searched